Year,Month,Day,Hour,Minute,Value (Times are PST for temperature in C)
2018,05,11,00,00,9.20
2018,05,11,00,01,9.20
2018,05,11,00,02,9.20
2018,05,11,00,03,9.20
2018,05,11,00,04,9.20
2018,05,11,00,05,9.20
2018,05,11,00,06,9.20
2018,05,11,00,07,9.20
2018,05,11,00,08,9.20
2018,05,11,00,09,9.20
2018,05,11,00,10,9.20
2018,05,11,00,11,9.20
2018,05,11,00,12,9.20
2018,05,11,00,13,9.20
2018,05,11,00,14,9.20
2018,05,11,00,15,9.20
2018,05,11,00,16,9.20
2018,05,11,00,17,9.20
2018,05,11,00,18,9.20
2018,05,11,00,19,9.20
2018,05,11,00,20,9.20
2018,05,11,00,21,9.20
2018,05,11,00,22,9.20
2018,05,11,00,23,9.20
2018,05,11,00,24,9.20
2018,05,11,00,25,9.20
2018,05,11,00,26,9.20
2018,05,11,00,27,9.20
2018,05,11,00,28,9.30
2018,05,11,00,29,9.30
2018,05,11,00,30,9.20
2018,05,11,00,31,9.30
2018,05,11,00,32,9.20
2018,05,11,00,33,9.20
2018,05,11,00,34,9.20
2018,05,11,00,35,9.30
2018,05,11,00,36,9.30
2018,05,11,00,37,9.30
2018,05,11,00,38,9.30
2018,05,11,00,39,9.30
2018,05,11,00,40,9.30
2018,05,11,00,41,9.30
2018,05,11,00,42,9.30
2018,05,11,00,43,9.30
2018,05,11,00,44,9.30
2018,05,11,00,45,9.30
2018,05,11,00,46,9.30
2018,05,11,00,47,9.30
2018,05,11,00,48,9.30
2018,05,11,00,49,9.30
2018,05,11,00,50,9.30
2018,05,11,00,51,9.30
2018,05,11,00,52,9.40
2018,05,11,00,53,9.40
2018,05,11,00,54,9.40
2018,05,11,00,55,9.40
2018,05,11,00,56,9.40
2018,05,11,00,57,9.40
2018,05,11,00,58,9.40
2018,05,11,00,59,9.40
2018,05,11,01,00,9.40
2018,05,11,01,01,9.40
2018,05,11,01,02,9.50
2018,05,11,01,03,9.50
2018,05,11,01,04,9.50
2018,05,11,01,05,9.50
2018,05,11,01,06,9.50
2018,05,11,01,07,9.50
2018,05,11,01,08,9.50
2018,05,11,01,09,9.50
2018,05,11,01,10,9.50
2018,05,11,01,11,9.60
2018,05,11,01,12,9.60
2018,05,11,01,13,9.60
2018,05,11,01,14,9.60
2018,05,11,01,15,9.60
2018,05,11,01,16,9.60
2018,05,11,01,17,9.60
2018,05,11,01,18,9.60
2018,05,11,01,19,9.60
2018,05,11,01,20,9.60
2018,05,11,01,21,9.60
2018,05,11,01,22,9.60
2018,05,11,01,23,9.60
2018,05,11,01,24,9.50
2018,05,11,01,25,9.50
2018,05,11,01,26,9.50
2018,05,11,01,27,9.50
2018,05,11,01,28,9.50
2018,05,11,01,29,9.40
2018,05,11,01,30,9.40
2018,05,11,01,31,9.40
2018,05,11,01,32,9.40
2018,05,11,01,33,9.40
2018,05,11,01,34,9.40
2018,05,11,01,35,9.40
2018,05,11,01,36,9.30
2018,05,11,01,37,9.30
2018,05,11,01,38,9.30
2018,05,11,01,39,9.30
2018,05,11,01,40,9.30
2018,05,11,01,41,9.30
2018,05,11,01,42,9.30
2018,05,11,01,43,9.30
2018,05,11,01,44,9.30
2018,05,11,01,45,9.20
2018,05,11,01,46,9.30
2018,05,11,01,47,9.20
2018,05,11,01,48,9.20
2018,05,11,01,49,9.20
2018,05,11,01,50,9.20
2018,05,11,01,51,9.20
2018,05,11,01,52,9.20
2018,05,11,01,53,9.20
2018,05,11,01,54,9.20
2018,05,11,01,55,9.20
2018,05,11,01,56,9.20
2018,05,11,01,57,9.20
2018,05,11,01,58,9.20
2018,05,11,01,59,9.20
2018,05,11,02,00,9.10
2018,05,11,02,01,9.10
2018,05,11,02,02,9.10
2018,05,11,02,03,9.10
2018,05,11,02,04,9.10
2018,05,11,02,05,9.10
2018,05,11,02,06,9.10
2018,05,11,02,07,9.10
2018,05,11,02,08,9.10
2018,05,11,02,09,9.10
2018,05,11,02,10,9.10
2018,05,11,02,11,9.10
2018,05,11,02,12,9.10
2018,05,11,02,13,9.10
2018,05,11,02,14,9.00
2018,05,11,02,15,9.00
2018,05,11,02,16,9.00
2018,05,11,02,17,9.00
2018,05,11,02,18,9.10
2018,05,11,02,19,9.00
2018,05,11,02,20,9.00
2018,05,11,02,21,9.00
2018,05,11,02,22,9.00
2018,05,11,02,23,9.00
2018,05,11,02,24,9.00
2018,05,11,02,25,9.10
2018,05,11,02,26,9.00
2018,05,11,02,27,9.00
2018,05,11,02,28,9.00
2018,05,11,02,29,9.00
2018,05,11,02,30,9.00
2018,05,11,02,31,9.00
2018,05,11,02,32,9.00
2018,05,11,02,33,9.00
2018,05,11,02,34,9.00
2018,05,11,02,35,9.00
2018,05,11,02,36,9.10
2018,05,11,02,37,9.00
2018,05,11,02,38,9.00
2018,05,11,02,39,9.00
2018,05,11,02,40,9.00
2018,05,11,02,41,9.00
2018,05,11,02,42,9.00
2018,05,11,02,43,9.00
2018,05,11,02,44,9.00
2018,05,11,02,45,9.00
2018,05,11,02,46,9.00
2018,05,11,02,47,9.00
2018,05,11,02,48,9.00
2018,05,11,02,49,9.00
2018,05,11,02,50,8.90
2018,05,11,02,51,8.90
2018,05,11,02,52,8.90
2018,05,11,02,53,8.90
2018,05,11,02,54,8.90
2018,05,11,02,55,8.90
2018,05,11,02,56,8.90
2018,05,11,02,57,8.90
2018,05,11,02,58,8.90
2018,05,11,02,59,8.90
2018,05,11,03,00,8.90
2018,05,11,03,01,8.90
2018,05,11,03,02,8.90
2018,05,11,03,03,8.90
2018,05,11,03,04,8.90
2018,05,11,03,05,8.80
2018,05,11,03,06,8.80
2018,05,11,03,07,8.80
2018,05,11,03,08,8.80
2018,05,11,03,09,8.80
2018,05,11,03,10,8.80
2018,05,11,03,11,8.80
2018,05,11,03,12,8.80
2018,05,11,03,13,8.80
2018,05,11,03,14,8.80
2018,05,11,03,15,8.80
2018,05,11,03,16,8.80
2018,05,11,03,17,8.80
2018,05,11,03,18,8.80
2018,05,11,03,19,8.80
2018,05,11,03,20,8.80
2018,05,11,03,21,8.80
2018,05,11,03,22,8.70
2018,05,11,03,23,8.70
2018,05,11,03,24,8.70
2018,05,11,03,25,8.70
2018,05,11,03,26,8.70
2018,05,11,03,27,8.70
2018,05,11,03,28,8.70
2018,05,11,03,29,8.70
2018,05,11,03,30,8.70
2018,05,11,03,31,8.70
2018,05,11,03,32,8.70
2018,05,11,03,33,8.70
2018,05,11,03,34,8.70
2018,05,11,03,35,8.70
2018,05,11,03,36,8.70
2018,05,11,03,37,8.70
2018,05,11,03,38,8.70
2018,05,11,03,39,8.70
2018,05,11,03,40,8.70
2018,05,11,03,41,8.70
2018,05,11,03,42,8.70
2018,05,11,03,43,8.70
2018,05,11,03,44,8.70
2018,05,11,03,45,8.70
2018,05,11,03,46,8.70
2018,05,11,03,47,8.70
2018,05,11,03,48,8.70
2018,05,11,03,49,8.70
2018,05,11,03,50,8.70
2018,05,11,03,51,8.70
2018,05,11,03,52,8.70
2018,05,11,03,53,8.70
2018,05,11,03,54,8.60
2018,05,11,03,55,8.60
2018,05,11,03,56,8.60
2018,05,11,03,57,8.60
2018,05,11,03,58,8.60
2018,05,11,03,59,8.60
2018,05,11,04,00,8.60
2018,05,11,04,01,8.60
2018,05,11,04,02,8.60
2018,05,11,04,03,8.60
2018,05,11,05,04,8.20
2018,05,11,05,05,8.20
2018,05,11,05,06,8.20
2018,05,11,05,07,8.20
2018,05,11,05,08,8.20
2018,05,11,05,09,8.20
2018,05,11,05,10,8.20
2018,05,11,05,11,8.20
2018,05,11,05,12,8.20
2018,05,11,05,13,8.20
2018,05,11,05,14,8.10
2018,05,11,05,15,8.10
2018,05,11,05,16,8.10
2018,05,11,05,17,8.10
2018,05,11,05,18,8.10
2018,05,11,05,19,8.10
2018,05,11,05,20,8.10
2018,05,11,05,21,8.10
2018,05,11,05,22,8.10
2018,05,11,05,23,8.10
2018,05,11,05,24,8.10
2018,05,11,05,25,8.10
2018,05,11,05,26,8.10
2018,05,11,05,27,8.10
2018,05,11,05,28,8.10
2018,05,11,05,29,8.10
2018,05,11,05,30,8.10
2018,05,11,05,31,8.10
2018,05,11,05,32,8.10
2018,05,11,05,33,8.10
2018,05,11,05,34,8.10
2018,05,11,05,35,8.10
2018,05,11,05,36,8.10
2018,05,11,05,37,8.10
2018,05,11,05,38,8.10
2018,05,11,05,39,8.10
2018,05,11,05,40,8.10
2018,05,11,05,41,8.10
2018,05,11,05,42,8.10
2018,05,11,05,43,8.10
2018,05,11,05,44,8.10
2018,05,11,05,45,8.10
2018,05,11,05,46,8.10
2018,05,11,05,47,8.10
2018,05,11,05,48,8.10
2018,05,11,05,49,8.10
2018,05,11,05,50,8.10
2018,05,11,05,51,8.10
2018,05,11,05,52,8.10
2018,05,11,05,53,8.10
2018,05,11,05,54,8.10
2018,05,11,05,55,8.10
2018,05,11,05,56,8.10
2018,05,11,05,57,8.10
2018,05,11,05,58,8.10
2018,05,11,05,59,8.20
2018,05,11,06,00,8.20
2018,05,11,06,01,8.20
2018,05,11,06,02,8.20
2018,05,11,06,03,8.20
2018,05,11,06,04,8.20
2018,05,11,06,05,8.20
2018,05,11,06,06,8.20
2018,05,11,06,07,8.20
2018,05,11,06,08,8.20
2018,05,11,06,09,8.20
2018,05,11,06,10,8.20
2018,05,11,06,11,8.20
2018,05,11,06,12,8.20
2018,05,11,06,13,8.20
2018,05,11,06,14,8.20
2018,05,11,06,15,8.20
2018,05,11,06,16,8.20
2018,05,11,06,17,8.20
2018,05,11,06,18,8.20
2018,05,11,06,19,8.20
2018,05,11,06,20,8.20
2018,05,11,06,21,8.20
2018,05,11,06,22,8.20
2018,05,11,06,23,8.20
2018,05,11,06,24,8.20
2018,05,11,06,25,8.30
2018,05,11,06,26,8.30
2018,05,11,06,27,8.30
2018,05,11,06,28,8.30
2018,05,11,06,29,8.30
2018,05,11,06,30,8.30
2018,05,11,06,31,8.30
2018,05,11,06,32,8.30
2018,05,11,06,33,8.30
2018,05,11,06,34,8.30
2018,05,11,06,35,8.30
2018,05,11,06,36,8.30
2018,05,11,06,37,8.30
2018,05,11,06,38,8.30
2018,05,11,06,39,8.30
2018,05,11,06,40,8.40
2018,05,11,06,41,8.40
2018,05,11,06,42,8.40
2018,05,11,06,43,8.40
2018,05,11,06,44,8.40
2018,05,11,06,45,8.40
2018,05,11,06,46,8.40
2018,05,11,06,47,8.40
2018,05,11,06,48,8.40
2018,05,11,06,49,8.50
2018,05,11,06,50,8.50
2018,05,11,06,51,8.60
2018,05,11,06,52,8.60
2018,05,11,06,53,8.60
2018,05,11,06,54,8.70
2018,05,11,06,55,8.70
2018,05,11,06,56,8.80
2018,05,11,06,57,8.80
2018,05,11,06,58,8.80
2018,05,11,06,59,8.90
2018,05,11,07,00,8.90
2018,05,11,07,01,9.00
2018,05,11,07,02,9.00
2018,05,11,07,03,9.10
2018,05,11,07,04,9.10
2018,05,11,07,05,9.10
2018,05,11,07,06,9.20
2018,05,11,07,07,9.20
2018,05,11,07,08,9.20
2018,05,11,07,09,9.30
2018,05,11,07,10,9.40
2018,05,11,07,11,9.40
2018,05,11,07,12,9.50
2018,05,11,07,13,9.50
2018,05,11,07,14,9.60
2018,05,11,07,15,9.70
2018,05,11,07,16,9.70
2018,05,11,07,17,9.80
2018,05,11,07,18,9.90
2018,05,11,07,19,9.90
2018,05,11,07,20,10.00
2018,05,11,07,21,10.10
2018,05,11,07,22,10.10
2018,05,11,07,23,10.10
2018,05,11,07,24,10.20
2018,05,11,07,25,10.30
2018,05,11,07,26,10.30
2018,05,11,07,27,10.40
2018,05,11,07,28,10.40
2018,05,11,07,29,10.40
2018,05,11,07,30,10.50
2018,05,11,07,31,10.50
2018,05,11,07,32,10.60
2018,05,11,07,33,10.60
2018,05,11,07,34,10.70
2018,05,11,07,35,10.80
2018,05,11,07,36,10.80
2018,05,11,07,37,10.80
2018,05,11,07,38,10.90
2018,05,11,07,39,10.90
2018,05,11,07,40,11.00
2018,05,11,07,41,11.10
2018,05,11,07,42,11.20
2018,05,11,07,43,11.20
2018,05,11,07,44,11.20
2018,05,11,07,45,11.30
2018,05,11,07,46,11.30
2018,05,11,07,47,11.30
2018,05,11,07,48,11.40
2018,05,11,07,49,11.40
2018,05,11,07,50,11.50
2018,05,11,07,51,11.50
2018,05,11,07,52,11.60
2018,05,11,07,53,11.70
2018,05,11,07,54,11.80
2018,05,11,07,55,11.80
2018,05,11,07,56,11.90
2018,05,11,07,57,11.90
2018,05,11,07,58,12.00
2018,05,11,07,59,12.00
2018,05,11,08,00,12.00
2018,05,11,08,01,12.10
2018,05,11,08,02,12.10
2018,05,11,08,03,12.20
2018,05,11,08,04,12.20
2018,05,11,08,05,12.30
2018,05,11,08,06,12.30
2018,05,11,08,07,12.30
2018,05,11,08,08,12.40
2018,05,11,08,09,12.50
2018,05,11,08,10,12.50
2018,05,11,08,11,12.60
2018,05,11,08,12,12.60
2018,05,11,08,13,12.70
2018,05,11,08,14,12.70
2018,05,11,08,15,12.80
2018,05,11,08,16,12.80
2018,05,11,08,17,12.80
2018,05,11,08,18,12.90
2018,05,11,08,19,13.00
2018,05,11,08,20,13.00
2018,05,11,08,21,13.10
2018,05,11,08,22,13.10
2018,05,11,08,23,13.20
2018,05,11,08,24,13.20
2018,05,11,08,25,13.20
2018,05,11,08,26,13.20
2018,05,11,08,27,13.20
2018,05,11,08,28,13.30
2018,05,11,08,29,13.30
2018,05,11,08,30,13.30
2018,05,11,08,31,13.30
2018,05,11,08,32,13.30
2018,05,11,08,33,13.40
2018,05,11,08,34,13.50
2018,05,11,08,35,13.50
2018,05,11,08,36,13.60
2018,05,11,08,37,13.60
2018,05,11,08,38,13.70
2018,05,11,08,39,13.70
2018,05,11,08,40,13.80
2018,05,11,08,41,13.80
2018,05,11,08,42,13.90
2018,05,11,08,43,14.00
2018,05,11,08,44,14.00
2018,05,11,08,45,14.10
2018,05,11,08,46,14.10
2018,05,11,08,47,14.10
2018,05,11,08,48,14.20
2018,05,11,08,49,14.20
2018,05,11,08,50,14.20
2018,05,11,08,51,14.20
2018,05,11,08,52,14.40
2018,05,11,08,53,14.40
2018,05,11,08,54,14.40
2018,05,11,08,55,14.40
2018,05,11,08,56,14.40
2018,05,11,08,57,14.40
2018,05,11,08,58,14.40
2018,05,11,08,59,14.40
2018,05,11,09,00,14.40
2018,05,11,09,01,14.40
2018,05,11,09,02,14.40
2018,05,11,09,03,14.40
2018,05,11,09,04,14.50
2018,05,11,09,05,14.50
2018,05,11,09,06,14.60
2018,05,11,09,07,14.60
2018,05,11,09,08,14.70
2018,05,11,09,09,14.70
2018,05,11,09,10,14.70
2018,05,11,09,11,14.80
2018,05,11,09,12,14.80
2018,05,11,09,13,14.70
2018,05,11,09,14,14.70
2018,05,11,09,15,14.70
2018,05,11,09,16,14.70
2018,05,11,09,17,14.60
2018,05,11,09,18,14.60
2018,05,11,09,19,14.60
2018,05,11,09,20,14.60
2018,05,11,09,21,14.60
2018,05,11,09,22,14.60
2018,05,11,09,23,14.50
2018,05,11,09,24,14.50
2018,05,11,09,25,14.40
2018,05,11,09,26,14.30
2018,05,11,09,27,14.30
2018,05,11,09,28,14.20
2018,05,11,09,29,14.10
2018,05,11,09,30,14.10
2018,05,11,09,31,14.10
2018,05,11,09,32,14.10
2018,05,11,09,33,14.20
2018,05,11,09,34,14.20
2018,05,11,09,35,14.20
2018,05,11,09,36,14.20
2018,05,11,09,37,14.30
2018,05,11,09,38,14.30
2018,05,11,09,39,14.30
2018,05,11,09,40,14.30
2018,05,11,09,41,14.30
2018,05,11,09,42,14.30
2018,05,11,09,43,14.30
2018,05,11,09,44,14.30
2018,05,11,09,45,14.30
2018,05,11,09,46,14.30
2018,05,11,09,47,14.30
2018,05,11,09,48,14.30
2018,05,11,09,49,14.30
2018,05,11,09,50,14.20
2018,05,11,09,51,14.30
2018,05,11,09,52,14.30
2018,05,11,09,53,14.30
2018,05,11,09,54,14.30
2018,05,11,09,55,14.30
2018,05,11,09,56,14.30
2018,05,11,09,57,14.40
2018,05,11,09,58,14.40
2018,05,11,09,59,14.50
2018,05,11,10,00,14.60
2018,05,11,10,01,14.60
2018,05,11,10,02,14.60
2018,05,11,10,03,14.60
2018,05,11,10,04,14.70
2018,05,11,10,05,14.70
2018,05,11,10,06,14.80
2018,05,11,10,07,14.80
2018,05,11,10,08,14.90
2018,05,11,10,09,15.00
2018,05,11,10,10,15.00
2018,05,11,10,11,15.10
2018,05,11,10,12,15.10
2018,05,11,10,13,15.10
2018,05,11,10,14,15.00
2018,05,11,10,15,15.00
2018,05,11,10,16,15.00
2018,05,11,10,17,15.00
2018,05,11,10,18,15.00
2018,05,11,10,19,14.90
2018,05,11,10,20,14.90
2018,05,11,10,21,14.90
2018,05,11,10,22,14.90
2018,05,11,10,23,14.80
2018,05,11,10,24,14.80
2018,05,11,10,25,14.80
2018,05,11,10,26,14.80
2018,05,11,10,27,14.80
2018,05,11,10,28,14.90
2018,05,11,10,29,14.90
2018,05,11,10,30,15.00
2018,05,11,10,31,15.00
2018,05,11,10,32,15.10
2018,05,11,10,33,15.10
2018,05,11,10,34,15.10
2018,05,11,10,35,15.10
2018,05,11,10,36,15.00
2018,05,11,10,37,14.80
2018,05,11,10,38,14.80
2018,05,11,10,39,14.80
2018,05,11,10,40,14.70
2018,05,11,10,41,14.60
2018,05,11,10,42,14.60
2018,05,11,10,43,14.60
2018,05,11,10,44,14.60
2018,05,11,10,45,14.60
2018,05,11,10,46,14.70
2018,05,11,10,47,14.70
2018,05,11,10,48,14.80
2018,05,11,10,49,14.80
2018,05,11,10,50,15.00
2018,05,11,10,51,15.10
2018,05,11,10,52,15.10
2018,05,11,10,53,15.20
2018,05,11,10,54,15.20
2018,05,11,10,55,15.20
2018,05,11,10,56,15.20
2018,05,11,10,57,15.20
2018,05,11,10,58,15.20
2018,05,11,10,59,15.30
2018,05,11,11,00,15.40
2018,05,11,11,01,15.40
2018,05,11,11,02,15.50
2018,05,11,11,03,15.60
2018,05,11,11,04,15.60
2018,05,11,11,05,15.60
2018,05,11,11,06,15.60
2018,05,11,11,07,15.50
2018,05,11,11,08,15.50
2018,05,11,11,09,15.50
2018,05,11,11,10,15.50
2018,05,11,11,11,15.50
2018,05,11,11,12,15.50
2018,05,11,11,13,15.60
2018,05,11,11,14,15.70
2018,05,11,11,15,15.80
2018,05,11,11,16,15.90
2018,05,11,11,17,16.10
2018,05,11,11,18,16.20
2018,05,11,11,19,16.30
2018,05,11,11,20,16.30
2018,05,11,11,21,16.30
2018,05,11,11,22,16.40
2018,05,11,11,23,16.50
2018,05,11,11,24,16.50
2018,05,11,11,25,16.60
2018,05,11,11,26,16.70
2018,05,11,11,27,16.80
2018,05,11,11,28,16.80
2018,05,11,11,29,16.80
2018,05,11,11,30,16.80
2018,05,11,11,31,16.80
2018,05,11,11,32,16.90
2018,05,11,11,33,17.00
2018,05,11,11,34,17.10
2018,05,11,11,35,17.00
2018,05,11,11,36,17.10
2018,05,11,11,37,17.10
2018,05,11,11,38,17.20
2018,05,11,11,39,17.30
2018,05,11,11,40,17.40
2018,05,11,11,41,17.40
2018,05,11,11,42,17.40
2018,05,11,11,43,17.30
2018,05,11,11,44,17.30
2018,05,11,11,45,17.20
2018,05,11,11,46,17.00
2018,05,11,11,47,16.90
2018,05,11,11,48,16.80
2018,05,11,11,49,16.70
2018,05,11,11,50,16.60
2018,05,11,11,51,16.40
2018,05,11,11,52,16.30
2018,05,11,11,53,16.20
2018,05,11,11,54,16.10
2018,05,11,11,55,16.10
2018,05,11,11,56,16.10
2018,05,11,11,57,16.20
2018,05,11,11,58,16.20
2018,05,11,11,59,16.30
2018,05,11,12,00,16.40
2018,05,11,12,01,16.50
2018,05,11,12,02,16.50
2018,05,11,12,03,16.40
2018,05,11,12,04,16.40
2018,05,11,12,05,16.40
2018,05,11,12,06,16.40
2018,05,11,12,07,16.40
2018,05,11,12,08,16.30
2018,05,11,12,09,16.30
2018,05,11,12,10,16.30
2018,05,11,12,11,16.30
2018,05,11,12,12,16.30
2018,05,11,12,13,16.30
2018,05,11,12,14,16.20
2018,05,11,12,15,16.20
2018,05,11,12,16,16.30
2018,05,11,12,17,16.40
2018,05,11,12,18,16.50
2018,05,11,12,19,16.50
2018,05,11,12,20,16.50
2018,05,11,12,21,16.60
2018,05,11,12,22,16.60
2018,05,11,12,23,16.60
2018,05,11,12,24,16.70
2018,05,11,12,25,16.70
2018,05,11,12,26,16.70
2018,05,11,12,27,16.80
2018,05,11,12,28,16.90
2018,05,11,12,29,17.00
2018,05,11,12,30,17.10
2018,05,11,12,31,17.20
2018,05,11,12,32,17.30
2018,05,11,12,33,17.40
2018,05,11,12,34,17.50
2018,05,11,12,35,17.60
2018,05,11,12,36,17.60
2018,05,11,12,37,17.60
2018,05,11,12,38,17.60
2018,05,11,12,39,17.60
2018,05,11,12,40,17.60
2018,05,11,12,41,17.60
2018,05,11,12,42,17.60
2018,05,11,12,43,17.70
2018,05,11,12,44,17.70
2018,05,11,12,45,17.80
2018,05,11,12,46,17.80
2018,05,11,12,47,17.90
2018,05,11,12,48,17.90
2018,05,11,12,49,18.00
2018,05,11,12,50,18.10
2018,05,11,12,51,18.20
2018,05,11,12,52,18.10
2018,05,11,12,53,18.20
2018,05,11,12,54,18.20
2018,05,11,12,55,18.20
2018,05,11,12,56,18.10
2018,05,11,12,57,18.10
2018,05,11,12,58,18.00
2018,05,11,12,59,17.80
2018,05,11,13,00,17.70
2018,05,11,13,01,17.50
2018,05,11,13,02,17.40
2018,05,11,13,03,17.40
2018,05,11,13,04,17.40
2018,05,11,13,05,17.40
2018,05,11,13,06,17.40
2018,05,11,13,07,17.40
2018,05,11,13,08,17.40
2018,05,11,13,09,17.40
2018,05,11,13,10,17.40
2018,05,11,13,11,17.40
2018,05,11,13,12,17.40
2018,05,11,13,13,17.50
2018,05,11,13,14,17.50
2018,05,11,13,15,17.50
2018,05,11,13,16,17.50
2018,05,11,13,17,17.50
2018,05,11,13,18,17.60
2018,05,11,13,19,17.70
2018,05,11,13,20,17.80
2018,05,11,13,21,17.80
2018,05,11,13,22,17.90
2018,05,11,13,23,17.90
2018,05,11,13,24,17.90
2018,05,11,13,25,18.00
2018,05,11,13,26,17.90
2018,05,11,13,27,17.90
2018,05,11,13,28,17.90
2018,05,11,13,29,17.90
2018,05,11,13,30,18.00
2018,05,11,13,31,18.00
2018,05,11,13,32,18.10
2018,05,11,13,33,18.20
2018,05,11,13,34,18.20
2018,05,11,13,35,18.20
2018,05,11,13,36,18.20
2018,05,11,13,37,18.20
2018,05,11,13,38,18.20
2018,05,11,13,39,18.20
2018,05,11,13,40,18.30
2018,05,11,13,41,18.30
2018,05,11,13,42,18.40
2018,05,11,13,43,18.50
2018,05,11,13,44,18.50
2018,05,11,13,45,18.60
2018,05,11,13,46,18.60
2018,05,11,13,47,18.60
2018,05,11,13,48,18.60
2018,05,11,13,49,18.60
2018,05,11,13,50,18.70
2018,05,11,13,51,18.80
2018,05,11,13,52,18.80
2018,05,11,13,53,18.90
2018,05,11,13,54,18.90
2018,05,11,13,55,18.90
2018,05,11,13,56,18.90
2018,05,11,13,57,18.90
2018,05,11,13,58,18.90
2018,05,11,13,59,18.90
2018,05,11,14,00,18.80
2018,05,11,14,01,18.70
2018,05,11,14,02,18.70
2018,05,11,14,03,18.70
2018,05,11,14,04,18.80
2018,05,11,14,05,18.80
2018,05,11,14,06,18.80
2018,05,11,14,07,18.70
2018,05,11,14,08,18.70
2018,05,11,14,09,18.70
2018,05,11,14,10,18.80
2018,05,11,14,11,18.80
2018,05,11,14,12,18.80
2018,05,11,14,13,18.80
2018,05,11,14,14,18.80
2018,05,11,14,15,18.80
2018,05,11,14,16,18.90
2018,05,11,14,17,19.10
2018,05,11,14,18,19.10
2018,05,11,14,19,19.20
2018,05,11,14,20,19.30
2018,05,11,14,21,19.30
2018,05,11,14,22,19.30
2018,05,11,14,23,19.30
2018,05,11,14,24,19.30
2018,05,11,14,25,19.30
2018,05,11,14,26,19.30
2018,05,11,14,27,19.40
2018,05,11,14,28,19.30
2018,05,11,14,29,19.30
2018,05,11,14,30,19.30
2018,05,11,14,31,19.20
2018,05,11,14,32,19.20
2018,05,11,14,33,19.10
2018,05,11,14,34,19.10
2018,05,11,14,35,19.10
2018,05,11,14,36,19.20
2018,05,11,14,37,19.20
2018,05,11,14,38,19.20
2018,05,11,14,39,19.20
2018,05,11,14,40,19.20
2018,05,11,14,41,19.20
2018,05,11,14,42,19.10
2018,05,11,14,43,19.10
2018,05,11,14,44,19.10
2018,05,11,14,45,19.10
2018,05,11,14,46,19.00
2018,05,11,14,47,19.00
2018,05,11,14,48,18.90
2018,05,11,14,49,18.80
2018,05,11,14,50,18.70
2018,05,11,14,51,18.70
2018,05,11,14,52,18.70
2018,05,11,14,53,18.70
2018,05,11,14,54,18.70
2018,05,11,14,55,18.70
2018,05,11,14,56,18.70
2018,05,11,14,57,18.70
2018,05,11,14,58,18.70
2018,05,11,14,59,18.70
2018,05,11,15,00,18.60
2018,05,11,15,01,18.60
2018,05,11,15,02,18.60
2018,05,11,15,03,18.50
2018,05,11,15,04,18.50
2018,05,11,15,05,18.60
2018,05,11,15,06,18.60
2018,05,11,15,07,18.60
2018,05,11,15,08,18.70
2018,05,11,15,09,18.70
2018,05,11,15,10,18.70
2018,05,11,15,11,18.70
2018,05,11,15,12,18.70
2018,05,11,15,13,18.70
2018,05,11,15,14,18.80
2018,05,11,15,15,18.80
2018,05,11,15,16,18.80
2018,05,11,15,17,18.90
2018,05,11,15,18,18.90
2018,05,11,15,19,18.80
2018,05,11,15,20,18.80
2018,05,11,15,21,18.80
2018,05,11,15,22,18.70
2018,05,11,15,23,18.50
2018,05,11,15,24,18.50
2018,05,11,15,25,18.50
2018,05,11,15,26,18.50
2018,05,11,15,27,18.60
2018,05,11,15,28,18.70
2018,05,11,15,29,18.70
2018,05,11,15,30,18.80
2018,05,11,15,31,18.90
2018,05,11,15,32,18.90
2018,05,11,15,33,19.00
2018,05,11,15,34,19.00
2018,05,11,15,35,18.90
2018,05,11,15,36,18.90
2018,05,11,15,37,18.90
2018,05,11,15,38,18.90
2018,05,11,15,39,18.90
2018,05,11,15,40,18.90
2018,05,11,15,41,18.90
2018,05,11,15,42,18.80
2018,05,11,15,43,18.80
2018,05,11,15,44,18.80
2018,05,11,15,45,18.70
2018,05,11,15,46,18.70
2018,05,11,15,47,18.70
2018,05,11,15,48,18.70
2018,05,11,15,49,18.70
2018,05,11,15,50,18.70
2018,05,11,15,51,18.60
2018,05,11,15,52,18.60
2018,05,11,15,53,18.50
2018,05,11,15,54,18.50
2018,05,11,15,55,18.50
2018,05,11,15,56,18.40
2018,05,11,15,57,18.50
2018,05,11,15,58,18.50
2018,05,11,15,59,18.50
2018,05,11,16,00,18.60
2018,05,11,16,01,18.60
2018,05,11,16,02,18.60
2018,05,11,16,03,18.60
2018,05,11,16,04,18.60
2018,05,11,16,05,18.70
2018,05,11,16,06,18.70
2018,05,11,16,07,18.80
2018,05,11,16,08,18.80
2018,05,11,16,09,18.80
2018,05,11,16,10,18.90
2018,05,11,16,11,18.90
2018,05,11,16,12,18.90
2018,05,11,16,13,19.00
2018,05,11,16,14,19.10
2018,05,11,16,15,19.10
2018,05,11,16,16,19.20
2018,05,11,16,17,19.20
2018,05,11,16,18,19.20
2018,05,11,16,19,19.30
2018,05,11,16,20,19.30
2018,05,11,16,21,19.40
2018,05,11,16,22,19.40
2018,05,11,16,23,19.40
2018,05,11,16,24,19.40
2018,05,11,16,25,19.40
2018,05,11,16,26,19.50
2018,05,11,16,27,19.50
2018,05,11,16,28,19.50
2018,05,11,16,29,19.60
2018,05,11,16,30,19.60
2018,05,11,16,31,19.70
2018,05,11,16,32,19.70
2018,05,11,16,33,19.70
2018,05,11,16,34,19.70
2018,05,11,16,35,19.80
2018,05,11,16,36,19.80
2018,05,11,16,37,19.80
2018,05,11,16,38,19.90
2018,05,11,16,39,19.90
2018,05,11,16,40,19.80
2018,05,11,16,41,19.80
2018,05,11,16,42,19.80
2018,05,11,16,43,19.80
2018,05,11,16,44,19.80
2018,05,11,16,45,19.70
2018,05,11,16,46,19.70
2018,05,11,16,47,19.70
2018,05,11,16,48,19.70
2018,05,11,16,49,19.80
2018,05,11,16,50,19.90
2018,05,11,16,51,19.90
2018,05,11,16,52,20.00
2018,05,11,16,53,20.10
2018,05,11,16,54,20.10
2018,05,11,16,55,20.20
2018,05,11,16,56,20.20
2018,05,11,16,57,20.20
2018,05,11,16,58,20.30
2018,05,11,16,59,20.30
2018,05,11,17,00,20.30
2018,05,11,17,01,20.30
2018,05,11,17,02,20.30
2018,05,11,17,03,20.20
2018,05,11,17,04,20.20
2018,05,11,17,05,20.10
2018,05,11,17,06,20.10
2018,05,11,17,07,20.00
2018,05,11,17,08,20.00
2018,05,11,17,09,20.00
2018,05,11,17,10,20.00
2018,05,11,17,11,19.90
2018,05,11,17,12,20.00
2018,05,11,17,13,20.00
2018,05,11,17,14,20.10
2018,05,11,17,15,20.20
2018,05,11,17,16,20.20
2018,05,11,17,17,20.10
2018,05,11,17,18,20.10
2018,05,11,17,19,20.10
2018,05,11,17,20,20.10
2018,05,11,17,21,20.10
2018,05,11,17,22,20.10
2018,05,11,17,23,20.10
2018,05,11,17,24,20.10
2018,05,11,17,25,20.10
2018,05,11,17,26,20.10
2018,05,11,17,27,20.10
2018,05,11,17,28,20.10
2018,05,11,17,29,20.00
2018,05,11,17,30,20.00
2018,05,11,17,31,19.90
2018,05,11,17,32,19.80
2018,05,11,17,33,19.70
2018,05,11,17,34,19.70
2018,05,11,17,35,19.60
2018,05,11,17,36,19.50
2018,05,11,17,37,19.50
2018,05,11,17,38,19.50
2018,05,11,17,39,19.50
2018,05,11,17,40,19.40
2018,05,11,17,41,19.40
2018,05,11,17,42,19.40
2018,05,11,17,43,19.30
2018,05,11,17,44,19.30
2018,05,11,17,45,19.30
2018,05,11,17,46,19.40
2018,05,11,17,47,19.40
2018,05,11,17,48,19.50
2018,05,11,17,49,19.50
2018,05,11,17,50,19.60
2018,05,11,17,51,19.60
2018,05,11,17,52,19.60
2018,05,11,17,53,19.60
2018,05,11,17,54,19.60
2018,05,11,17,55,19.60
2018,05,11,17,56,19.70
2018,05,11,17,57,19.70
2018,05,11,17,58,19.70
2018,05,11,17,59,19.70
2018,05,11,18,00,19.80
2018,05,11,18,01,19.80
2018,05,11,18,02,19.80
2018,05,11,18,03,19.80
2018,05,11,18,04,19.80
2018,05,11,18,05,19.80
2018,05,11,18,06,19.70
2018,05,11,18,07,19.70
2018,05,11,18,08,19.70
2018,05,11,18,09,19.70
2018,05,11,18,10,19.70
2018,05,11,18,11,19.70
2018,05,11,18,12,19.70
2018,05,11,18,13,19.70
2018,05,11,18,14,19.70
2018,05,11,18,15,19.70
2018,05,11,18,16,19.60
2018,05,11,18,17,19.60
2018,05,11,18,18,19.60
2018,05,11,18,19,19.60
2018,05,11,18,20,19.60
2018,05,11,18,21,19.60
2018,05,11,18,22,19.60
2018,05,11,18,23,19.60
2018,05,11,18,24,19.60
2018,05,11,18,25,19.60
2018,05,11,18,26,19.60
2018,05,11,18,27,19.60
2018,05,11,18,28,19.60
2018,05,11,18,29,19.60
2018,05,11,18,30,19.50
2018,05,11,18,31,19.50
2018,05,11,18,32,19.40
2018,05,11,18,33,19.40
2018,05,11,18,34,19.30
2018,05,11,18,35,19.30